Volver al catálogo

COSMOS 252 DEB

ActivoUNKNOWN
NORAD 3788·DEBRIS·🇷🇺 Russia

Lanzado Nov 1, 1968 desde Baikonur Cosmodrome

Loading…

Próximos Pases (próximas 24 horas)

TLE

ActualizadoSource: Space-Track

Época: Sep 14, 2026, 12:52 UTC

1 03788U 68097BA  26257.53654203 -.00000040  00000-0  21237-3 0  9999
2 03788  61.8729 290.1156 0581349  40.8014  33.1157 11.88459683511046

Sigue COSMOS 252 DEB en tiempo real con AllMySat

Download on the App Store